#timestamp,LO_Frequency,Hit,StdDev 
1697457615.0,286047000.4,N
1697457615.9,286047000.4,N
1697457635.8,286047001.1,N
1697457655.6,286047000.3,N
1697457675.5,286047000.7,N
1697457695.3,286047000.1,N
1697457715.1,286047000.3,N
1697457735.9,286047000.6,N
1697457755.7,286047000.5,N
1697457775.6,286046999.8,N
1697457795.4,286046999.9,N
1697457815.2,286047000.4,N
1697457835.1,286047001.2,N
1697457836.0,286047001.2,N
1697457855.8,286047000.0,N
1697457875.7,286047000.3,N
1697457895.5,286047001.0,N
1697457915.3,286047001.0,N
1697457935.2,286047000.5,N
1697457955.0,286047000.2,N
1697457955.9,286047000.2,N
1697457975.8,286047002.8,Y
1697457995.6,286046998.1,P
1697458015.4,286047000.8,N
1697458035.3,286047000.4,N
1697458055.1,286047001.2,N
1697458075.9,286047001.0,N
1697458095.7,286047000.4,N
1697458115.5,286047000.6,N
1697458135.4,286047001.0,N
1697458155.2,286047000.8,N
1697458175.0,286046998.4,N
1697458175.9,286046998.4,N
1697458195.8,286046998.6,N
1697458215.6,286046998.6,N
1697458235.5,286046998.2,N
1697458255.3,286047001.0,N
1697458275.1,286047000.5,N
1697458295.9,286047000.9,N
1697458315.7,286047000.2,N
1697458335.6,286047002.0,N
1697458355.4,286047001.8,N
1697458375.2,286047002.4,N
1697458395.1,286047000.1,N
1697458396.0,286047000.1,N
1697458415.8,286046999.8,N
1697458435.6,286047002.7,N
1697458455.5,286047002.5,N
1697458475.3,286047002.4,N
1697458495.2,286047002.3,N
1697458515.9,286047001.9,N
1697458535.7,286047002.1,N
1697458555.6,286047002.4,N
1697458575.4,286047001.7,N
1697458595.2,286046999.8,N
1697458615.1,286047002.5,N
1697458616.0,286047002.5,N
1697458635.8,286047002.3,N
1697458655.7,286047000.2,N
1697458675.5,286047002.7,N
1697458695.3,286047002.1,N
1697458715.2,286046999.7,N
1697458735.0,286047000.5,N
1697458735.9,286047000.5,N
1697458755.8,286047000.8,N
1697458775.6,286047000.8,N
1697458795.4,286046999.7,N
1697458815.3,286047002.8,N
1697458835.1,286046999.9,N
1697458855.9,286047000.4,N
1697458875.7,286046998.8,N
1697458895.5,286047001.0,N
1697458915.4,286047001.0,N
1697458935.2,286047000.0,N
1697458955.0,286046999.8,N
1697458955.9,286046999.8,N
1697458975.8,286047001.9,N
1697458995.6,286047002.0,N
1697459015.5,286047004.1,Y
1697459035.3,286047002.1,P
1697459055.1,286047001.9,P
1697459075.9,286047002.5,P
1697459095.7,286047002.1,Y
1697459115.6,286047000.1,P
1697459135.4,286047000.6,N
1697459155.2,286046998.6,N
1697459175.1,286047000.8,N
1697459176.0,286047000.8,N
1697459195.8,286047000.5,N
1697459215.7,286047000.9,N
1697459235.5,286047000.4,N
1697459255.3,286047000.4,N
1697459275.2,286047000.1,N
1697459295.0,286046998.1,N
1697459295.9,286046998.1,N
1697459315.7,286046998.6,N
1697459335.6,286046998.2,N
1697459355.4,286046998.6,N
1697459375.3,286047000.9,N
1697459395.1,286047001.1,N
1697459396.0,286047001.1,N
1697459415.8,286046998.3,N
1697459435.7,286047000.8,N
1697459455.5,286047001.1,N
1697459475.3,286046998.5,N
1697459495.2,286046998.1,N
1697459515.0,286046998.4,N
1697459515.9,286046998.4,N
1697459535.8,286046999.4,N
1697459555.6,286046998.9,N
1697459575.4,286046998.5,N
1697459595.3,286046998.7,N
1697459615.1,286046998.9,N
1697459635.8,286046998.4,N
1697459655.7,286047001.2,N
1697459675.5,286046999.6,N
1697459695.4,286046996.8,N
1697459715.2,286046998.8,N
1697459735.0,286046998.8,N
1697459735.9,286046998.8,N
1697459755.8,286046998.9,N
1697459775.6,286046996.5,Y
1697459795.5,286046998.5,P
1697459815.3,286047001.1,P
1697459835.1,286046998.2,N
1697459855.9,286046998.6,N
1697459875.7,286047001.0,N
1697459895.5,286047001.2,N
1697459915.4,286046998.8,N
1697459935.2,286047000.8,N
1697459955.0,286046998.6,N
1697459956.0,286046998.6,N
1697459975.8,286047000.4,N
1697459995.6,286047001.1,N
1697460015.5,286047000.8,N
1697460035.3,286046998.7,N
1697460055.1,286046998.6,N
1697460075.9,286046999.0,N
1697460095.7,286046998.9,N
1697460115.5,286047001.2,N
1697460135.4,286046998.6,N
1697460155.2,286047000.8,N
1697460175.1,286047000.7,N
1697460176.0,286047000.7,N
1697460195.8,286047000.4,N
1697460215.6,286047000.6,N
1697460235.5,286047001.2,N
1697460255.3,286047001.2,N
1697460275.2,286046999.4,N
1697460295.9,286046999.2,N
1697460315.7,286046998.7,N
1697460335.6,286046998.5,N
1697460355.4,286047000.7,N
1697460375.2,286047000.7,N
1697460395.1,286047000.7,N
1697460396.0,286047000.7,N
1697460415.8,286047000.6,N
1697460435.7,286047000.7,N
1697460455.5,286046998.6,N
1697460475.3,286046998.6,N
1697460495.2,286047000.3,N
1697460515.0,286047000.9,N
1697460515.9,286047000.9,N
1697460535.7,286047000.7,N
1697460555.6,286047000.9,N
1697460575.4,286046998.2,N
1697460595.3,286046998.5,N
1697460615.1,286046998.2,N
1697460635.8,286046998.7,N
1697460655.7,286046998.8,N
1697460675.5,286047000.7,N
1697460695.4,286047000.6,N
1697460715.2,286046998.1,N
1697460735.0,286046999.1,N
1697460735.9,286046999.1,N
1697460755.8,286046996.9,N
1697460775.6,286046997.7,N
1697460795.5,286046996.6,N
1697460815.3,286046997.3,N
1697460835.1,286046997.0,N
1697460855.9,286046997.4,N
1697460875.7,286046997.2,N
1697460895.5,286046997.7,N
1697460915.4,286046997.4,N
1697460935.2,286046994.9,Y
1697460955.1,286046997.1,P
1697460956.0,286046997.1,P
1697460975.8,286046996.8,P
1697460995.6,286046996.6,Y
1697461015.5,286047000.4,P
1697461035.3,286047000.0,N
1697461055.2,286046999.9,N
1697461075.9,286047000.0,N
1697461095.7,286047000.9,N
1697461115.6,286047000.7,N
1697461135.4,286047000.9,N
1697461155.3,286047000.0,N
1697461175.1,286047000.3,N
1697461176.0,286047000.3,N
1697461195.8,286047001.1,N
